Location: Dappach
(48.9767°N, 9.6998°E)
Time: 23:17:31
(UTC+00:00)

FO-29 - Visible Passes

Search period start: 11 October 2024 00:00
Search period end: 21 October 2024 00:00
Orbit: 801 x 1320 km, 98.6° (Epoch: 11 October)

Date Brightness Start Highest point End Pass type
(mag) Time Alt. Az. Time Alt. Az. Time Alt. Az.
11 Oct 11.4 00:04:07 10° NNE 00:07:36 30° NNE 00:07:36 30° NNE visible
11 Oct 11.4 01:49:53 10° N 01:54:04 24° NNW 01:54:04 24° NNW visible
11 Oct 11.9 23:09:21 10° NNE 23:11:36 20° NE 23:11:36 20° NE visible
12 Oct 11.3 00:54:14 10° N 00:58:04 31° N 00:58:04 31° N visible
12 Oct 11.7 02:41:00 10° NNW 02:44:31 15° NW 02:44:31 15° NW visible
12 Oct 11.6 23:59:00 10° NNE 00:02:04 27° NNE 00:02:04 27° NNE visible
13 Oct 11.4 01:44:42 10° N 01:48:31 24° NNW 01:48:31 24° NNW visible
13 Oct 12.0 23:04:17 10° NNE 23:06:04 17° NE 23:06:04 17° NE visible
14 Oct 11.4 00:49:05 10° N 00:52:31 28° N 00:52:31 28° N visible
14 Oct 11.7 02:35:47 10° NNW 02:38:58 15° NW 02:38:58 15° NW visible
14 Oct 11.7 23:53:53 10° NNE 23:56:30 24° NNE 23:56:30 24° NNE visible
15 Oct 11.5 01:39:32 10° N 01:42:58 23° NNW 01:42:58 23° NNW visible
15 Oct 12.1 22:59:14 10° NNE 23:00:30 15° NE 23:00:30 15° NE visible
16 Oct 11.5 00:43:57 10° N 00:46:57 26° N 00:46:57 26° N visible
16 Oct 11.7 02:30:35 10° NNW 02:33:25 15° NW 02:33:25 15° NW visible
16 Oct 11.9 23:48:46 10° NNE 23:50:56 21° NNE 23:50:56 21° NNE visible
17 Oct 11.5 01:34:21 10° N 01:37:25 22° NNW 01:37:25 22° NNW visible
17 Oct 12.3 22:54:11 10° NNE 22:54:56 13° NNE 22:54:56 13° NNE visible
18 Oct 11.7 00:38:47 10° N 00:41:23 23° N 00:41:23 23° N visible
18 Oct 11.7 02:25:22 10° N 02:27:51 15° NNW 02:27:51 15° NNW visible
18 Oct 12.0 23:43:39 10° NNE 23:45:22 18° NNE 23:45:22 18° NNE visible
19 Oct 11.6 01:29:11 10° N 01:31:50 21° NNW 01:31:50 21° NNW visible
19 Oct 12.4 22:49:09 10° NNE 22:49:21 11° NNE 22:49:21 11° NNE visible
20 Oct 11.8 00:33:38 10° N 00:35:49 21° N 00:35:49 21° N visible
20 Oct 11.8 02:20:09 10° N 02:22:16 15° NNW 02:22:16 15° NNW visible
20 Oct 12.1 23:38:32 10° NNE 23:39:48 16° NNE 23:39:48 16° NNE visible
